Location: Archamps
(46.1365°N, 6.1329°E)
Time: 10:53:32
(UTC+00:00)

CZ-6A DEB - Pass Details

Date: 01 March 2024
Orbit: 823 x 884 km, 98.8° (Epoch: 12 April)

Event Time Altitude Azimuth Distance (km) Brightness Sun altitude
Rises 18:18:58 0° 211° (SSW) 3,456 ? -10.6°
Reaches altitude 10° 18:22:16 10° 231° (SW) 2,514 ? -11.2°
Maximum altitude 18:25:47 17° 270° (W) 2,059 ? -11.8°
Drops below altitude 10° 18:29:17 10° 310° (NW) 2,500 ? -12.4°
Sets 18:32:34 0° 330° (NNW) 3,429 ? -12.9°
